Time,TemperatureF,DewpointF,PressureIn,WindDirection,WindDirectionDegrees,WindSpeedMPH,WindSpeedGustMPH,Humidity,HourlyPrecipIn,Conditions,Clouds,dailyrainin,SoftwareType,DateUTC
2013-05-07 00:11:00,50.2,49.9,29.73,WNW,292,0.0,-999.0,99,-99.99,,,0.00,Acu-Link.com,2013-05-07 04:11:00,
2013-05-07 00:26:00,50.4,50.1,29.73,NNE,22,0.0,-999.0,99,-99.99,,,0.00,Acu-Link.com,2013-05-07 04:26:00,
2013-05-07 00:41:00,50.4,50.1,29.74,North,0,0.0,-999.0,99,-99.99,,,0.00,Acu-Link.com,2013-05-07 04:41:00,
2013-05-07 00:57:00,50.4,50.1,29.74,East,90,0.0,-999.0,99,-99.99,,,0.00,Acu-Link.com,2013-05-07 04:57:00,
2013-05-07 01:12:00,50.2,49.9,29.74,NNE,22,1.7,-999.0,99,-99.99,,,0.00,Acu-Link.com,2013-05-07 05:12:00,
2013-05-07 01:27:00,50.2,49.9,29.74,WSW,247,0.0,-999.0,99,-99.99,,,0.01,Acu-Link.com,2013-05-07 05:27:00,
2013-05-07 01:42:00,50.2,49.9,29.74,WNW,292,0.0,-999.0,99,-99.99,,,0.01,Acu-Link.com,2013-05-07 05:42:00,
2013-05-07 01:57:00,50.2,49.9,29.73,South,180,0.0,-999.0,99,-99.99,,,0.01,Acu-Link.com,2013-05-07 05:57:00,
2013-05-07 02:12:00,50.2,49.9,29.73,WNW,292,0.0,-999.0,99,-99.99,,,0.01,Acu-Link.com,2013-05-07 06:12:00,
2013-05-07 02:27:00,50.2,49.9,29.73,SSE,157,0.0,-999.0,99,-99.99,,,0.01,Acu-Link.com,2013-05-07 06:27:00,
2013-05-07 02:42:00,50.2,49.9,29.73,NE,45,0.0,-999.0,99,-99.99,,,0.01,Acu-Link.com,2013-05-07 06:42:00,
2013-05-07 02:57:00,50.0,49.7,29.72,SSW,202,0.0,-999.0,99,-99.99,,,0.01,Acu-Link.com,2013-05-07 06:57:00,
2013-05-07 03:13:00,49.5,49.2,29.71,SSE,157,0.0,-999.0,99,-99.99,,,0.01,Acu-Link.com,2013-05-07 07:13:00,
2013-05-07 03:28:00,49.3,49.0,29.71,NNE,22,0.0,-999.0,99,-99.99,,,0.01,Acu-Link.com,2013-05-07 07:28:00,
2013-05-07 03:43:00,49.1,48.8,29.71,ENE,67,0.0,-999.0,99,-99.99,,,0.01,Acu-Link.com,2013-05-07 07:43:00,
2013-05-07 03:58:00,49.1,48.8,29.71,WNW,292,0.0,-999.0,99,-99.99,,,0.01,Acu-Link.com,2013-05-07 07:58:00,
2013-05-07 04:14:00,49.1,48.8,29.71,NE,45,1.1,-999.0,99,-99.99,,,0.01,Acu-Link.com,2013-05-07 08:14:00,
2013-05-07 04:29:00,48.9,48.6,29.71,West,270,0.0,-999.0,99,-99.99,,,0.01,Acu-Link.com,2013-05-07 08:29:00,
2013-05-07 04:44:00,48.7,48.4,29.72,NE,45,0.0,-999.0,99,-99.99,,,0.01,Acu-Link.com,2013-05-07 08:44:00,
2013-05-07 04:59:00,47.7,47.4,29.72,NE,45,0.0,-999.0,99,-99.99,,,0.01,Acu-Link.com,2013-05-07 08:59:00,
2013-05-07 05:14:00,47.1,46.8,29.73,NNW,337,0.0,-999.0,99,-99.99,,,0.01,Acu-Link.com,2013-05-07 09:14:00,
2013-05-07 05:29:00,46.8,46.5,29.73,ESE,112,0.0,-999.0,99,-99.99,,,0.01,Acu-Link.com,2013-05-07 09:29:00,
2013-05-07 05:45:00,46.2,45.9,29.73,North,0,0.0,-999.0,99,-99.99,,,0.01,Acu-Link.com,2013-05-07 09:45:00,
2013-05-07 06:00:00,45.7,45.4,29.74,NW,315,0.0,-999.0,99,-99.99,,,0.01,Acu-Link.com,2013-05-07 10:00:00,
2013-05-07 06:15:00,45.9,45.6,29.74,NE,45,0.0,-999.0,99,-99.99,,,0.01,Acu-Link.com,2013-05-07 10:15:00,
2013-05-07 06:30:00,46.4,46.1,29.74,WNW,292,0.0,-999.0,99,-99.99,,,0.01,Acu-Link.com,2013-05-07 10:30:00,
2013-05-07 06:45:00,46.9,46.6,29.75,North,0,0.0,-999.0,99,-99.99,,,0.01,Acu-Link.com,2013-05-07 10:45:00,
2013-05-07 07:00:00,47.1,46.8,29.76,WSW,247,0.0,-999.0,99,-99.99,,,0.01,Acu-Link.com,2013-05-07 11:00:00,
2013-05-07 07:15:00,47.5,47.2,29.77,ESE,112,0.0,-999.0,99,-99.99,,,0.01,Acu-Link.com,2013-05-07 11:15:00,
2013-05-07 07:30:00,47.7,47.4,29.77,East,90,0.0,-999.0,99,-99.99,,,0.01,Acu-Link.com,2013-05-07 11:30:00,
2013-05-07 07:45:00,48.2,47.9,29.77,ESE,112,0.0,-999.0,99,-99.99,,,0.01,Acu-Link.com,2013-05-07 11:45:00,
2013-05-07 08:01:00,49.8,49.5,29.78,West,270,0.0,-999.0,99,-99.99,,,0.01,Acu-Link.com,2013-05-07 12:01:00,
2013-05-07 08:16:00,50.7,50.4,29.79,ESE,112,1.7,-999.0,99,-99.99,,,0.01,Acu-Link.com,2013-05-07 12:16:00,
2013-05-07 08:31:00,50.7,50.4,29.79,NNE,22,1.1,-999.0,99,-99.99,,,0.01,Acu-Link.com,2013-05-07 12:31:00,
2013-05-07 08:46:00,51.3,51.0,29.79,WNW,292,0.0,-999.0,99,-99.99,,,0.01,Acu-Link.com,2013-05-07 12:46:00,
2013-05-07 09:01:00,51.4,51.1,29.80,NNE,22,1.7,-999.0,99,-99.99,,,0.01,Acu-Link.com,2013-05-07 13:01:00,
2013-05-07 09:16:00,52.0,51.5,29.79,ENE,67,2.2,-999.0,98,-99.99,,,0.01,Acu-Link.com,2013-05-07 13:16:00,
2013-05-07 09:31:00,57.0,53.2,29.80,East,90,2.7,-999.0,87,-99.99,,,0.02,Acu-Link.com,2013-05-07 13:31:00,
2013-05-07 09:46:00,62.4,54.7,29.80,NNE,22,1.7,-999.0,76,-99.99,,,0.02,Acu-Link.com,2013-05-07 13:46:00,
2013-05-07 10:01:00,64.8,54.0,29.80,ESE,112,2.2,-999.0,68,-99.99,,,0.02,Acu-Link.com,2013-05-07 14:01:00,
2013-05-07 10:17:00,67.8,53.9,29.80,ESE,112,0.0,-999.0,61,-99.99,,,0.02,Acu-Link.com,2013-05-07 14:17:00,
2013-05-07 10:32:00,59.0,51.8,29.80,NNW,337,3.7,-999.0,77,-99.99,,,0.02,Acu-Link.com,2013-05-07 14:32:00,
2013-05-07 10:47:00,60.4,51.7,29.80,NW,315,2.7,-999.0,73,-99.99,,,0.02,Acu-Link.com,2013-05-07 14:47:00,
2013-05-07 11:02:00,61.9,50.8,29.79,NE,45,1.7,-999.0,67,-99.99,,,0.02,Acu-Link.com,2013-05-07 15:02:00,
2013-05-07 11:17:00,62.6,51.1,29.80,West,270,4.7,-999.0,66,-99.99,,,0.02,Acu-Link.com,2013-05-07 15:17:00,
2013-05-07 11:32:00,63.9,51.9,29.79,West,270,1.1,-999.0,65,-99.99,,,0.02,Acu-Link.com,2013-05-07 15:32:00,
2013-05-07 11:47:00,63.7,52.9,29.79,WSW,247,2.2,-999.0,68,-99.99,,,0.02,Acu-Link.com,2013-05-07 15:47:00,
2013-05-07 12:02:00,65.3,51.9,29.79,WNW,292,3.7,-999.0,62,-99.99,,,0.02,Acu-Link.com,2013-05-07 16:02:00,
2013-05-07 12:17:00,66.0,55.9,29.79,WNW,292,2.7,-999.0,70,-99.99,,,0.02,Acu-Link.com,2013-05-07 16:17:00,
2013-05-07 12:33:00,66.4,52.5,29.80,WNW,292,4.2,-999.0,61,-99.99,,,0.02,Acu-Link.com,2013-05-07 16:33:00,
2013-05-07 12:48:00,66.9,52.6,29.80,WNW,292,3.7,-999.0,60,-99.99,,,0.02,Acu-Link.com,2013-05-07 16:48:00,
2013-05-07 13:03:00,66.7,51.4,29.80,NNE,22,2.2,-999.0,58,-99.99,,,0.02,Acu-Link.com,2013-05-07 17:03:00,
2013-05-07 13:18:00,67.6,51.8,29.79,WSW,247,1.7,-999.0,57,-99.99,,,0.02,Acu-Link.com,2013-05-07 17:18:00,
2013-05-07 13:33:00,68.2,51.4,29.78,West,270,1.7,-999.0,55,-99.99,,,0.02,Acu-Link.com,2013-05-07 17:33:00,
2013-05-07 13:48:00,68.9,53.5,29.79,West,270,4.7,-999.0,58,-99.99,,,0.02,Acu-Link.com,2013-05-07 17:48:00,
2013-05-07 14:03:00,69.3,52.4,29.78,WNW,292,4.2,-999.0,55,-99.99,,,0.02,Acu-Link.com,2013-05-07 18:03:00,
2013-05-07 14:18:00,70.5,51.0,29.79,WNW,292,2.7,-999.0,50,-99.99,,,0.02,Acu-Link.com,2013-05-07 18:18:00,
2013-05-07 14:33:00,71.6,53.0,29.78,ENE,67,3.2,-999.0,52,-99.99,,,0.02,Acu-Link.com,2013-05-07 18:33:00,
2013-05-07 14:48:00,70.5,53.5,29.78,SE,135,3.7,-999.0,55,-99.99,,,0.02,Acu-Link.com,2013-05-07 18:48:00,
2013-05-07 15:04:00,71.1,53.1,29.77,West,270,2.2,-999.0,53,-99.99,,,0.02,Acu-Link.com,2013-05-07 19:04:00,
2013-05-07 15:19:00,71.1,51.5,29.77,WNW,292,4.2,-999.0,50,-99.99,,,0.02,Acu-Link.com,2013-05-07 19:19:00,
2013-05-07 15:34:00,72.5,52.2,29.76,West,270,3.2,-999.0,49,-99.99,,,0.02,Acu-Link.com,2013-05-07 19:34:00,
2013-05-07 15:49:00,71.1,51.5,29.75,NNW,337,2.7,-999.0,50,-99.99,,,0.02,Acu-Link.com,2013-05-07 19:49:00,
2013-05-07 16:04:00,72.1,51.3,29.75,NNW,337,3.7,-999.0,48,-99.99,,,0.02,Acu-Link.com,2013-05-07 20:04:00,
2013-05-07 16:19:00,70.5,53.5,29.75,NNW,337,2.2,-999.0,55,-99.99,,,0.02,Acu-Link.com,2013-05-07 20:19:00,
2013-05-07 16:34:00,72.9,50.9,29.74,SSW,202,2.7,-999.0,46,-99.99,,,0.02,Acu-Link.com,2013-05-07 20:34:00,
2013-05-07 16:49:00,75.9,51.1,29.74,West,270,1.7,-999.0,42,-99.99,,,0.02,Acu-Link.com,2013-05-07 20:49:00,
2013-05-07 17:04:00,71.4,51.2,29.73,WSW,247,0.0,-999.0,49,-99.99,,,0.02,Acu-Link.com,2013-05-07 21:04:00,
2013-05-07 17:20:00,72.7,51.9,29.74,WSW,247,1.1,-999.0,48,-99.99,,,0.02,Acu-Link.com,2013-05-07 21:20:00,
2013-05-07 17:35:00,71.2,51.6,29.74,ENE,67,2.7,-999.0,50,-99.99,,,0.02,Acu-Link.com,2013-05-07 21:35:00,
2013-05-07 17:50:00,70.9,52.9,29.75,West,270,2.2,-999.0,53,-99.99,,,0.02,Acu-Link.com,2013-05-07 21:50:00,
2013-05-07 18:05:00,72.1,52.4,29.75,WNW,292,1.7,-999.0,50,-99.99,,,0.02,Acu-Link.com,2013-05-07 22:05:00,
2013-05-07 18:20:00,71.1,51.5,29.75,WNW,292,3.7,-999.0,50,-99.99,,,0.02,Acu-Link.com,2013-05-07 22:20:00,
2013-05-07 18:35:00,71.6,55.1,29.75,NNW,337,1.7,-999.0,56,-99.99,,,0.02,Acu-Link.com,2013-05-07 22:35:00,
2013-05-07 18:50:00,69.1,55.5,29.76,West,270,2.2,-999.0,62,-99.99,,,0.02,Acu-Link.com,2013-05-07 22:50:00,
2013-05-07 19:05:00,65.1,58.4,29.77,West,270,3.7,-999.0,79,-99.99,,,0.03,Acu-Link.com,2013-05-07 23:05:00,
2013-05-07 19:21:00,62.1,59.4,29.76,East,90,2.7,-999.0,91,-99.99,,,0.05,Acu-Link.com,2013-05-07 23:21:00,
2013-05-07 19:36:00,62.1,59.4,29.76,NNW,337,0.0,-999.0,91,-99.99,,,0.05,Acu-Link.com,2013-05-07 23:36:00,
2013-05-07 19:51:00,60.6,57.3,29.77,ENE,67,1.7,-999.0,89,-99.99,,,0.05,Acu-Link.com,2013-05-07 23:51:00,
2013-05-07 20:06:00,59.5,58.4,29.77,SSE,157,1.7,-999.0,96,-99.99,,,0.09,Acu-Link.com,2013-05-08 00:06:00,
2013-05-07 20:21:00,59.2,58.3,29.78,SSW,202,1.7,-999.0,97,-99.99,,,0.09,Acu-Link.com,2013-05-08 00:21:00,
2013-05-07 20:36:00,58.8,58.2,29.78,NE,45,0.0,-999.0,98,-99.99,,,0.09,Acu-Link.com,2013-05-08 00:36:00,
2013-05-07 20:51:00,58.3,58.0,29.81,WSW,247,0.0,-999.0,99,-99.99,,,0.09,Acu-Link.com,2013-05-08 00:51:00,
2013-05-07 21:07:00,58.1,57.8,29.79,North,0,0.0,-999.0,99,-99.99,,,0.12,Acu-Link.com,2013-05-08 01:07:00,
2013-05-07 21:22:00,58.1,57.8,29.80,South,180,0.0,-999.0,99,-99.99,,,0.12,Acu-Link.com,2013-05-08 01:22:00,
2013-05-07 21:37:00,57.9,57.6,29.81,South,180,1.1,-999.0,99,-99.99,,,0.12,Acu-Link.com,2013-05-08 01:37:00,
2013-05-07 21:52:00,57.6,57.3,29.81,SSE,157,0.0,-999.0,99,-99.99,,,0.12,Acu-Link.com,2013-05-08 01:52:00,
2013-05-07 22:07:00,56.8,56.5,29.80,ESE,112,0.0,-999.0,99,-99.99,,,0.12,Acu-Link.com,2013-05-08 02:07:00,
2013-05-07 22:22:00,56.3,56.0,29.81,SSE,157,0.0,-999.0,99,-99.99,,,0.12,Acu-Link.com,2013-05-08 02:22:00,
2013-05-07 22:37:00,55.6,55.3,29.81,South,180,0.0,-999.0,99,-99.99,,,0.12,Acu-Link.com,2013-05-08 02:37:00,
2013-05-07 22:53:00,55.0,54.7,29.82,SSE,157,0.0,-999.0,99,-99.99,,,0.12,Acu-Link.com,2013-05-08 02:53:00,
2013-05-07 23:08:00,54.7,54.4,29.81,South,180,0.0,-999.0,99,-99.99,,,0.12,Acu-Link.com,2013-05-08 03:08:00,
2013-05-07 23:23:00,53.8,53.5,29.81,SE,135,0.0,-999.0,99,-99.99,,,0.13,Acu-Link.com,2013-05-08 03:23:00,
2013-05-07 23:38:00,53.2,52.9,29.81,SE,135,0.0,-999.0,99,-99.99,,,0.13,Acu-Link.com,2013-05-08 03:38:00,
2013-05-07 23:53:00,52.7,52.4,29.81,SSE,157,0.0,-999.0,99,-99.99,,,0.13,Acu-Link.com,2013-05-08 03:53:00,